Photometre #847[NE_1.6_Dp] Glasgow_MO AOT

File : 20210611_847.hum

11/06/2021,04:55:51,TEMP=14.1,BA=5.68,STAT.A,ExtBa=12.10
11/06/2021,05:01:03,TEMP=14.2,BA=5.68,STAT.A,ExtBa=12.10
11/06/2021,05:07:03,TEMP=14.2,BA=5.68,STAT.A,ExtBa=12.10
11/06/2021,05:14:05,TEMP=14.3,BA=5.68,STAT.A,ExtBa=12.10
11/06/2021,05:22:26,TEMP=14.4,BA=5.68,STAT.A,ExtBa=12.10
11/06/2021,05:32:33,TEMP=14.3,BA=5.68,STAT.A,ExtBa=12.10
11/06/2021,05:44:23,TEMP=14.2,BA=5.68,STAT.D,ExtBa=12.10
11/06/2021,05:46:24,TEMP=14.6,BA=5.68,STAT.B,ExtBa=12.10
11/06/2021,05:50:58,TEMP=14.4,BA=5.68,STAT.A,ExtBa=12.10
11/06/2021,05:57:30,TEMP=14.4,BA=5.68,STAT.A,ExtBa=12.10
11/06/2021,06:04:47,TEMP=14.4,BA=5.68,STAT.A,ExtBa=12.10
11/06/2021,06:12:57,TEMP=14.1,BA=5.68,STAT.A,ExtBa=12.10
11/06/2021,06:22:12,TEMP=13.7,BA=5.68,STAT.C,ExtBa=12.10
11/06/2021,06:32:47,TEMP=13.0,BA=5.68,STAT.A,ExtBa=12.10
11/06/2021,06:44:24,TEMP=12.8,BA=5.68,STAT.D,ExtBa=12.10
11/06/2021,06:46:24,TEMP=13.3,BA=5.68,STAT.A,ExtBa=12.10
11/06/2021,06:59:26,TEMP=13.4,BA=5.68,STAT.A,ExtBa=12.10
11/06/2021,07:04:24,TEMP=13.7,BA=5.60,STAT.D,ExtBa=12.10
11/06/2021,07:16:24,TEMP=14.0,BA=5.68,STAT.D,ExtBa=12.10
11/06/2021,07:18:29,TEMP=14.5,BA=5.68,STAT.A,ExtBa=12.10
11/06/2021,07:28:24,TEMP=14.8,BA=5.60,STAT.D,ExtBa=12.10
11/06/2021,07:32:24,TEMP=15.3,BA=5.60,STAT.D,ExtBa=12.10
11/06/2021,07:36:24,TEMP=15.7,BA=5.60,STAT.D,ExtBa=12.10
11/06/2021,07:38:30,TEMP=16.2,BA=5.60,STAT.B,ExtBa=12.00
11/06/2021,07:48:34,TEMP=17.0,BA=5.60,STAT.b=2.0
11/06/2021,07:52:23,TEMP=16.6,BA=5.68,STAT.D,ExtBa=12.00
11/06/2021,07:56:24,TEMP=16.7,BA=5.68,STAT.D,ExtBa=12.00
11/06/2021,08:00:24,TEMP=16.9,BA=5.68,STAT.D,ExtBa=12.00
11/06/2021,08:04:24,TEMP=16.7,BA=5.68,STAT.D,ExtBa=12.00
11/06/2021,08:16:24,TEMP=15.4,BA=5.68,STAT.D,ExtBa=12.00
11/06/2021,08:20:24,TEMP=15.6,BA=5.68,STAT.D,ExtBa=12.00
11/06/2021,08:22:21,TEMP=16.1,BA=5.68,STAT.B,ExtBa=12.00
11/06/2021,08:32:58,TEMP=16.1,BA=5.68,STAT.D,ExtBa=12.00
11/06/2021,08:36:24,TEMP=16.6,BA=5.68,STAT.D,ExtBa=12.00
11/06/2021,08:47:58,TEMP=16.9,BA=5.68,STAT.D,ExtBa=12.00
11/06/2021,08:52:25,TEMP=17.0,BA=5.64,STAT.D,ExtBa=12.00
11/06/2021,08:56:24,TEMP=16.9,BA=5.64,STAT.D,ExtBa=12.00
11/06/2021,09:00:24,TEMP=17.2,BA=5.68,STAT.D,ExtBa=12.00
11/06/2021,09:02:58,TEMP=17.5,BA=5.68,STAT.D,ExtBa=12.00
11/06/2021,09:08:24,TEMP=17.5,BA=5.68,STAT.D,ExtBa=12.00
11/06/2021,09:12:25,TEMP=17.7,BA=5.56,STAT.D,ExtBa=12.00
11/06/2021,09:16:25,TEMP=17.7,BA=5.56,STAT.D,ExtBa=12.00
11/06/2021,09:18:27,TEMP=18.1,BA=5.56,STAT.F,ExtBa=12.00
11/06/2021,09:42:12,TEMP=18.5,BA=5.56,STAT.b=3.0
11/06/2021,09:42:47,TEMP=18.5,BA=5.56,STAT.b=3.0
11/06/2021,09:47:58,TEMP=17.9,BA=5.56,STAT.D,ExtBa=12.00
11/06/2021,09:52:25,TEMP=17.9,BA=5.60,STAT.D,ExtBa=12.00
11/06/2021,09:56:25,TEMP=18.0,BA=5.60,STAT.D,ExtBa=12.00
11/06/2021,10:00:25,TEMP=18.1,BA=5.64,STAT.D,ExtBa=12.00
11/06/2021,10:02:59,TEMP=18.2,BA=5.64,STAT.D,ExtBa=12.00
11/06/2021,10:08:25,TEMP=17.9,BA=5.64,STAT.D,ExtBa=12.00
11/06/2021,10:12:25,TEMP=17.8,BA=5.56,STAT.D,ExtBa=12.00
11/06/2021,10:16:25,TEMP=17.8,BA=5.56,STAT.D,ExtBa=12.00
11/06/2021,10:18:26,TEMP=18.3,BA=5.56,STAT.F,ExtBa=12.00
11/06/2021,10:32:25,TEMP=17.7,BA=5.64,STAT.D,ExtBa=12.00
11/06/2021,10:34:25,TEMP=18.2,BA=5.64,STAT.D,ExtBa=12.00
11/06/2021,10:40:25,TEMP=18.1,BA=5.64,STAT.D,ExtBa=12.00
11/06/2021,10:44:25,TEMP=18.2,BA=5.64,STAT.D,ExtBa=12.00
11/06/2021,10:47:59,TEMP=18.2,BA=5.64,STAT.D,ExtBa=12.00
11/06/2021,10:52:25,TEMP=18.1,BA=5.60,STAT.D,ExtBa=12.00
11/06/2021,10:56:25,TEMP=18.1,BA=5.60,STAT.D,ExtBa=12.00
11/06/2021,11:00:25,TEMP=18.0,BA=5.64,STAT.D,ExtBa=12.00
11/06/2021,11:02:59,TEMP=18.2,BA=5.64,STAT.D,ExtBa=12.00
11/06/2021,11:08:25,TEMP=18.0,BA=5.64,STAT.D,ExtBa=12.00
11/06/2021,11:12:25,TEMP=18.0,BA=5.56,STAT.D,ExtBa=12.00
11/06/2021,11:16:25,TEMP=18.0,BA=5.56,STAT.D,ExtBa=12.00
11/06/2021,11:18:26,TEMP=18.4,BA=5.56,STAT.F,ExtBa=12.00
11/06/2021,11:34:21,TEMP=19.7,BA=5.56,STAT.D,ExtBa=11.90
11/06/2021,11:40:25,TEMP=18.9,BA=5.64,STAT.D,ExtBa=12.00
11/06/2021,11:44:25,TEMP=19.0,BA=5.64,STAT.D,ExtBa=12.00
11/06/2021,11:47:59,TEMP=19.0,BA=5.64,STAT.D,ExtBa=12.00
11/06/2021,12:00:25,TEMP=17.7,BA=5.68,STAT.D,ExtBa=12.00
11/06/2021,12:02:59,TEMP=17.9,BA=5.68,STAT.D,ExtBa=12.00
11/06/2021,12:16:25,TEMP=17.3,BA=5.68,STAT.D,ExtBa=12.00
11/06/2021,12:18:32,TEMP=17.7,BA=5.68,STAT.F,ExtBa=12.00
11/06/2021,12:32:25,TEMP=17.1,BA=5.68,STAT.D,ExtBa=12.00
11/06/2021,12:34:24,TEMP=17.7,BA=5.68,STAT.D,ExtBa=12.00
11/06/2021,12:40:25,TEMP=17.6,BA=5.68,STAT.D,ExtBa=12.00
11/06/2021,12:44:25,TEMP=17.7,BA=5.68,STAT.D,ExtBa=12.00
11/06/2021,12:47:59,TEMP=18.0,BA=5.68,STAT.D,ExtBa=12.00
11/06/2021,12:52:25,TEMP=18.1,BA=5.60,STAT.D,ExtBa=12.00
11/06/2021,12:56:25,TEMP=18.2,BA=5.60,STAT.D,ExtBa=12.00
11/06/2021,13:02:59,TEMP=17.9,BA=5.68,STAT.D,ExtBa=12.00
11/06/2021,13:16:25,TEMP=16.6,BA=5.68,STAT.D,ExtBa=12.00
11/06/2021,13:18:29,TEMP=16.7,BA=5.68,STAT.F,ExtBa=12.00
11/06/2021,13:34:52,TEMP=16.7,BA=5.56,STAT.D,ExtBa=11.90
11/06/2021,13:40:25,TEMP=16.6,BA=5.68,STAT.D,ExtBa=12.00
11/06/2021,13:44:25,TEMP=16.8,BA=5.68,STAT.D,ExtBa=12.00
11/06/2021,13:47:59,TEMP=16.8,BA=5.68,STAT.D,ExtBa=12.00
11/06/2021,13:52:25,TEMP=16.9,BA=5.60,STAT.D,ExtBa=12.00
11/06/2021,14:02:59,TEMP=16.8,BA=5.68,STAT.D,ExtBa=12.00
11/06/2021,14:08:25,TEMP=16.3,BA=5.68,STAT.D,ExtBa=12.00
11/06/2021,14:12:25,TEMP=16.0,BA=5.56,STAT.D,ExtBa=12.00
11/06/2021,14:18:00,TEMP=15.7,BA=5.56,STAT.F,ExtBa=12.00
11/06/2021,14:34:28,TEMP=17.9,BA=5.56,STAT.D,ExtBa=11.90
11/06/2021,14:40:25,TEMP=17.5,BA=5.68,STAT.D,ExtBa=11.90
11/06/2021,14:44:25,TEMP=17.8,BA=5.68,STAT.D,ExtBa=12.00
11/06/2021,14:47:59,TEMP=18.1,BA=5.68,STAT.D,ExtBa=11.90
11/06/2021,14:52:25,TEMP=18.0,BA=5.60,STAT.D,ExtBa=12.00
11/06/2021,15:02:59,TEMP=17.0,BA=5.68,STAT.D,ExtBa=12.00
11/06/2021,15:16:24,TEMP=17.2,BA=5.68,STAT.D,ExtBa=12.00
11/06/2021,15:18:19,TEMP=17.6,BA=5.68,STAT.F,ExtBa=12.00
11/06/2021,15:32:25,TEMP=15.8,BA=5.68,STAT.D,ExtBa=12.00
11/06/2021,15:34:24,TEMP=15.9,BA=5.68,STAT.D,ExtBa=12.00
11/06/2021,15:47:58,TEMP=14.9,BA=5.56,STAT.D,ExtBa=12.00
11/06/2021,16:00:24,TEMP=14.9,BA=5.68,STAT.D,ExtBa=12.00
11/06/2021,16:02:58,TEMP=15.1,BA=5.68,STAT.D,ExtBa=12.00
11/06/2021,16:08:24,TEMP=15.0,BA=5.68,STAT.D,ExtBa=12.00
11/06/2021,16:12:24,TEMP=15.2,BA=5.56,STAT.D,ExtBa=12.00
11/06/2021,16:14:42,TEMP=15.5,BA=5.56,STAT.B,ExtBa=12.00
11/06/2021,16:28:24,TEMP=15.8,BA=5.68,STAT.D,ExtBa=12.00
11/06/2021,16:40:24,TEMP=15.9,BA=5.68,STAT.D,ExtBa=12.00
11/06/2021,16:52:24,TEMP=16.0,BA=5.68,STAT.D,ExtBa=12.00
11/06/2021,16:58:09,TEMP=15.9,BA=5.68,STAT.B,ExtBa=12.00
11/06/2021,17:08:24,TEMP=15.8,BA=5.56,STAT.D,ExtBa=11.90
11/06/2021,17:12:24,TEMP=15.7,BA=5.56,STAT.D,ExtBa=12.00
11/06/2021,17:19:18,TEMP=15.3,BA=5.56,STAT.A,ExtBa=12.00
11/06/2021,17:32:24,TEMP=14.9,BA=5.68,STAT.D,ExtBa=12.00
11/06/2021,17:36:24,TEMP=15.0,BA=5.68,STAT.D,ExtBa=12.00
11/06/2021,17:38:27,TEMP=15.4,BA=5.68,STAT.A,ExtBa=11.90
11/06/2021,17:48:24,TEMP=15.7,BA=5.56,STAT.D,ExtBa=12.00
11/06/2021,17:50:55,TEMP=16.1,BA=5.60,STAT.A,ExtBa=12.00
11/06/2021,17:56:24,TEMP=16.2,BA=5.60,STAT.D,ExtBa=12.00
11/06/2021,18:03:11,TEMP=16.2,BA=5.68,STAT.A,ExtBa=12.00
11/06/2021,18:13:46,TEMP=16.3,BA=5.68,STAT.C,ExtBa=12.00
11/06/2021,18:38:34,TEMP=16.4,BA=5.56,STAT.A,ExtBa=11.90
11/06/2021,18:41:47,TEMP=15.9,BA=5.56,STAT.A,ExtBa=11.90
11/06/2021,18:44:29,TEMP=16.0,BA=5.56,STAT.A,ExtBa=11.90
11/06/2021,18:46:39,TEMP=16.0,BA=5.56,STAT.A,ExtBa=11.90
11/06/2021,18:50:53,TEMP=15.5,BA=5.68,STAT.B,ExtBa=11.90
11/06/2021,19:03:25,TEMP=15.4,BA=5.68,STAT.A,ExtBa=12.00
11/06/2021,19:08:24,TEMP=15.5,BA=5.68,STAT.D,ExtBa=12.00
11/06/2021,19:12:24,TEMP=15.5,BA=5.56,STAT.D,ExtBa=12.00
11/06/2021,19:14:25,TEMP=15.9,BA=5.56,STAT.A,ExtBa=11.90
11/06/2021,19:20:24,TEMP=15.3,BA=5.68,STAT.D,ExtBa=12.00
11/06/2021,19:22:18,TEMP=15.5,BA=5.68,STAT.A,ExtBa=11.90
11/06/2021,19:28:55,TEMP=14.7,BA=5.68,STAT.A,ExtBa=12.00
11/06/2021,19:34:56,TEMP=14.4,BA=5.56,STAT.A,ExtBa=12.00
11/06/2021,19:40:08,TEMP=14.1,BA=5.60,STAT.A,ExtBa=12.00